User: anonymous   Login
Location: Lecco
(45.8566°N, 9.3977°E)
Time: 10:53:15
(UTC+02:00)
Language:

Transit 4A - Orbit

View from above orbital plane
View from above orbital plane
View from above satellite
View from above satellite

Ground track
Ground track

The orbit data is extracted from the following two-line orbital elements,

1   116U 61015A   19198.80848574 -.00000034 +00000-0 +33092-4 0  9992
2   116 066.8109 308.7211 0082229 246.1790 113.0654 13.91755510945111
Epoch (UTC): 17 July 2019 19:24:13
Eccentricity: 0.0082229
inclination: 66.8109°
perigee height: 862 km
apogee height: 982 km
right ascension of ascending node: 308.7211°
argument of perigee: 246.1790°
revolutions per day: 13.91755510
mean anomaly at epoch: 113.0654°
orbit number at epoch: 94511

The dashed part of the orbit path shows where the satellite is in the earth's shadow,  

DLR